Weather History for Glens Falls, NY

Change the Weather History Date:

Thursday, March 14, 2013

  Actual Average Record
Temperature  
Mean Temperature 28 °F 30 °F  
Max Temperature 33 °F 41 °F 69 °F (1990)
Min Temperature 23 °F 19 °F -9 °F (2014)
Degree Days  
Heating Degree Days 37 35  
Month to date heating degree days 406 521  
Since 1 July heating degree days 5507 6141  
Cooling Degree Days 0 0  
Month to date cooling degree days 0 0  
Year to date cooling degree days 0 0  
Moisture  
Dew Point 11 °F    
Average Humidity 53    
Maximum Humidity 65    
Minimum Humidity 40    
Precipitation  
Precipitation T in 0.10 in 1.15 in (1997)
Month to date precipitation 1.94 1.29  
Year to date precipitation 4.24 6.23  
Sea Level Pressure  
Sea Level Pressure 29.86 in    
Wind  
Wind Speed 10 mph (WNW)    
Max Wind Speed 22 mph    
Max Gust Speed 28 mph    
Visibility 9 miles    
Events Snow    
T = Trace of Precipitation, MM = Missing Value Source: NWS Daily Summary

Daily Weather History Graph

Daily Weather History Graph

Search for Another Location

Airport:

Trip Planner

Search our weather history database for the weather conditions in past years. The results will help you decide how hot, cold, wet, or windy it might be!

Date:

Astronomy

Mar. 14, 2013 Rise Set
Actual Time 7:07 AM EDT 6:59 PM EDT
Civil Twilight 6:39 AM EDT 7:28 PM EDT
Nautical Twilight 6:06 AM EDT 8:01 PM EDT
Astronomical Twilight 5:32 AM EDT 8:35 PM EDT
Moon 8:14 AM EDT (3/14) 10:20 PM EDT (3/14)
Length of Visible Light 12h 48m
Length of Day
11h 51m
Waxing Crescent, 9% of the Moon is Illuminated
Mar 14
Waxing Crescent
Mar 19
First Quarter
Mar 27
Full
Apr 3
Last Quarter
Apr 10
New

Hourly Weather History & Observations

Time (EDT) Temp. Windchill Dew Point Humidity Pressure Visibility Wind Dir Wind Speed Gust Speed Precip Events Conditions
12:53 AM 33.1 °F 26.9 °F 18.0 °F 54% 29.83 in 10.0 mi West 6.9 mph 17.3 mph N/A   Mostly Cloudy
1:53 AM 30.9 °F 27.5 °F 16.0 °F 54% 29.83 in 10.0 mi WSW 3.5 mph - N/A   Partly Cloudy
2:53 AM 30.9 °F 22.8 °F 15.1 °F 52% 29.83 in 10.0 mi WSW 9.2 mph - N/A   Overcast
3:53 AM 30.0 °F 20.5 °F 15.1 °F 54% 29.82 in 10.0 mi WSW 11.5 mph - N/A   Overcast
4:53 AM 28.9 °F 18.6 °F 15.1 °F 56% 29.81 in 10.0 mi WSW 12.7 mph 17.3 mph N/A   Scattered Clouds
5:53 AM 28.0 °F 20.0 °F 16.0 °F 61% 29.81 in 10.0 mi WSW 8.1 mph - N/A   Overcast
6:53 AM 28.0 °F 19.3 °F 14.0 °F 56% 29.83 in 10.0 mi West 9.2 mph - N/A   Overcast
7:53 AM 27.0 °F 18.7 °F 14.0 °F 58% 29.84 in 10.0 mi West 8.1 mph - 0.00 in   Overcast
8:53 AM 26.1 °F 17.6 °F 10.9 °F 53% 29.85 in 10.0 mi West 8.1 mph - N/A   Overcast
9:53 AM 26.1 °F 17.6 °F 12.0 °F 55% 29.85 in 10.0 mi SW 8.1 mph - N/A   Overcast
10:41 AM 26.6 °F 17.5 °F 14.0 °F 59% 29.82 in 2.5 mi WSW 9.2 mph 16.1 mph 0.00 in Snow Light Snow
10:49 AM 26.6 °F 19.1 °F 15.8 °F 64% 29.82 in 1.2 mi Variable 6.9 mph - 0.00 in Snow Light Snow
10:53 AM 26.1 °F 18.4 °F 15.1 °F 63% 29.85 in 1.8 mi West 6.9 mph - 0.00 in Snow Light Snow
11:01 AM 26.6 °F 19.1 °F 15.8 °F 64% 29.82 in 2.5 mi Variable 6.9 mph - 0.00 in Snow Light Snow
11:12 AM 26.6 °F 21.2 °F 14.0 °F 59% 29.82 in 8.0 mi Variable 4.6 mph - 0.00 in Snow Light Snow
11:21 AM 26.6 °F 17.5 °F 12.2 °F 55% 29.82 in 10.0 mi NW 9.2 mph - 0.00 in   Overcast
11:53 AM 30.0 °F 20.0 °F 9.0 °F 41% 29.84 in 10.0 mi West 12.7 mph 20.7 mph 0.00 in   Overcast
12:53 PM 28.9 °F 15.8 °F 8.1 °F 41% 29.83 in 10.0 mi WNW 20.7 mph 27.6 mph N/A   Mostly Cloudy
1:53 PM 27.0 °F 16.1 °F 6.1 °F 41% 29.84 in 10.0 mi West 12.7 mph 24.2 mph N/A   Overcast
2:53 PM 26.1 °F 13.6 °F 6.1 °F 43% 29.85 in 10.0 mi NW 16.1 mph 24.2 mph N/A   Overcast
3:53 PM 25.0 °F 13.1 °F 5.0 °F 43% 29.87 in 10.0 mi WNW 13.8 mph 19.6 mph N/A   Overcast
4:53 PM 24.1 °F 11.5 °F 5.0 °F 44% 29.88 in 10.0 mi West 15.0 mph 25.3 mph N/A   Overcast
5:53 PM 25.0 °F 15.5 °F 3.9 °F 41% 29.90 in 10.0 mi NW 9.2 mph - N/A   Overcast
6:53 PM 24.1 °F 14.4 °F 5.0 °F 44% 29.91 in 10.0 mi NW 9.2 mph - N/A   Overcast
7:53 PM 25.0 °F 19.3 °F 6.1 °F 45% 29.91 in 10.0 mi NNW 4.6 mph - N/A   Overcast
8:53 PM 24.1 °F 17.0 °F 7.0 °F 48% 29.92 in 10.0 mi North 5.8 mph - N/A   Overcast
9:53 PM 23.0 °F 14.7 °F 12.9 °F 65% 29.93 in 10.0 mi NNW 6.9 mph - N/A   Overcast
10:53 PM 24.1 °F 17.0 °F 10.9 °F 57% 29.94 in 10.0 mi North 5.8 mph - N/A   Overcast
11:53 PM 24.1 °F 15.2 °F 8.1 °F 51% 29.94 in 10.0 mi NNW 8.1 mph - N/A   Overcast